User: anonymous
Location: Fort Wayne
(41.1310°N, 85.1290°W)
Time: 07:05:07
(UTC-04:00)
Language:

Cosmos 1980 - Orbit

View from above orbital plane
View from above orbital plane
View from above satellite
View from above satellite

Ground track
Ground track

The orbit data is extracted from the following two-line orbital elements,

1 19649U 88102A   14107.92016862 -.00000163  00000-0 -60268-4 0  7384
2 19649 071.0020 332.4369 0007882 272.9140 087.1080 14.14534632311058
Epoch (UTC): 17 April 2014 22:05:02
Eccentricity: 0.0007882
inclination: 71.0020°
perigee height: 838 km
apogee height: 849 km
right ascension of ascending node: 332.4369°
argument of perigee: 272.9140°
revolutions per day: 14.14534632
mean anomaly at epoch: 87.1080°
orbit number at epoch: 31105

The dashed part of the orbit path shows where the satellite is in the earth's shadow,  

DLR